[ hide orbit diagram ]
For accurate long-term ephemerides, please instead use our Horizons system.This orbit viewer was implemented using two-body methods, and hence should not be used for determining accurate long-term trajectories (over several years or decades) or planetary encounter circumstances.
Orbital Elements at Epoch 2459200.5 (2020-Dec-17.0) TDB
Reference: JPL 32 (heliocentric ecliptic J2000)
Element | Value | Uncertainty (1-sigma) | Units |
e | .2135349471276963 | 2.5022e-08 | |
a | 2.253823929515957 | 7.0455e-09 | au |
q | 1.77255375589163 | 5.7012e-08 | au |
i | 4.674209353014128 | 3.4704e-06 | deg |
node | 203.9522141278047 | 3.5812e-05 | deg |
peri | 98.58228473208661 | 3.7032e-05 | deg |
M | 292.9850472685304 | 1.0861e-05 | deg |
tp | 2459430.563445759370 (2021-Aug-04.06344576) | 3.7897e-05 | TDB |
period | 1235.885979137316 3.38 | 5.7951e-06 1.587e-08 | d yr |
n | .2912890073008922 | 1.3659e-09 | deg/d |
Q | 2.735094103140284 | 8.5499e-09 | au |
|
| | Orbit Determination Parameters
Additional Information
|
[ show covariance matrix ]
Physical Parameter Table
Parameter |
Symbol |
Value |
Units |
Sigma |
Reference |
Notes |
absolute magnitude |
H |
14.47 |
|
n/a |
E2021B10 |
|
diameter |
diameter |
2.690 |
km |
0.358 |
urn:nasa:pds:neowise_diameters_albedos::2.0[mainbelt] (http://adsabs.harvard.edu/abs/2015ApJ...814..117N) |
|
geometric albedo |
albedo |
0.254 |
|
0.093 |
urn:nasa:pds:neowise_diameters_albedos::2.0[mainbelt] (http://adsabs.harvard.edu/abs/2011ApJ...741...68M) |
|
|
23437 Šíma | Discovered 1984 Sept. 27 by A. Mrkos at Klet. |
Josef Šíma (1891-1971) was a Czech imaginative, abstract and surrealist painter, who lived in France from 1921. His sources of inspiration spanned nature, crystals, cosmic visions, landscape and female bodies, to fascination by stories of ancient mythology such as Falling Icarus or Leda and the Swan. |
NOTE: some special characters may not display properly (any characters within {} are an attempt to place the proper accent above a character) |
Reference: MPC batch dated 2016-11-14 | Last Updated: 2016-11-20 |
|
[ show close-approach data ]
Alternate Designations
1984 SJ1 = 1994 RF14 = 2000 CX62 |
|
|